Preview of NWS' New Version of Forecast
This preview is not operational and should not be used for support decisions.

Regional Weather Roundup (RWR)

Issued by Gray - Portland, ME (GYX)

                            
000
ASUS41 KGYX 250905
RWRGYX
WEATHER ROUNDUP FOR MAINE AND NEW HAMPSHIRE
NATIONAL WEATHER SERVICE GRAY ME
500 AM EDT TUE JUN 25 2019

MEZ002-005-006-010-012-015-018-020-021-024-026-027-029-251000-
MAINE
  
CITY           SKY/WX    TMP DP  RH WIND       PRES   REMARKS
PORTLAND       FAIR      53  51  93 CALM      29.94S                  
SANFORD        FAIR      46  45  96 SW3       29.93R                  
BAR HARBOR     FAIR      45  44  97 CALM      29.97R                  
WISCASSET      FAIR      46  44  93 CALM      29.96S                  
ROCKLAND       FAIR      45  44  97 VRB3      29.96R                  
FRYEBURG       FOG       45  44  97 W3        29.95R VSB 1/4          
LEWISTONAUBURN FAIR      48  46  93 CALM      29.96R                  
AUGUSTA        FAIR      51  49  92 CALM      29.96R                  
WATERVILLE     FAIR      49  48  97 CALM      29.94R                  
BANGOR         MOCLDY    47  46  97 CALM      29.97R                  
GREENVILLE       N/A     53  37  54 E6        29.96R                  
MILLINOCKET    FAIR      44  41  89 CALM      29.98R                  
HOULTON        FAIR      40  38  93 CALM      29.96R                  
PRESQUE ISLE   FAIR      40  39  97 CALM      29.99R                  
FRENCHVILLE    FAIR      49  40  71 SW3       29.96R                  
CARIBOU        FAIR      44  40  85 CALM      29.97R                  
$$

NHZ002-005-008-009-011-012-014-251000-
NEW HAMPSHIRE
  
CITY           SKY/WX    TMP DP  RH WIND       PRES   REMARKS
PORTSMOUTH     MOCLDY    57  54  92 N5        29.90R                  
ROCHESTER      FAIR      52  48  86 N3        29.92R                  
NASHUA         FAIR      57  56  96 W3        29.91R                  
MANCHESTER     MOCLDY    59  53  80 NE5       29.89R                  
CONCORD        FAIR      53  48  83 CALM      29.91S                  
LACONIA        FAIR      54  50  86 CALM      29.92R                  
BERLIN         FAIR      43  39  86 CALM      29.94S                  
WHITEFIELD     FAIR      44  42  93 CALM      29.90R                  
JAFFREY        FAIR      56  53  90 CALM      29.92R                  
KEENE          FAIR      56  55  97 S3        29.88R                  
LEBANON        MOCLDY    55  51  86 SE3       29.88R                  
MT WASHINGTON  NOT AVBL                                               
$$

VTZ005-007-008-251000-
VERMONT
  
CITY           SKY/WX    TMP DP  RH WIND       PRES   REMARKS
ST JOHNSBURY     N/A     49  48  97 MISG      29.88S                  
MONTPELIER     FAIR      53  50  89 CALM      29.91S                  
BURLINGTON     FAIR      63  52  67 S3        29.79F                  
$$

MAZ007-012-024-CTZ003-RIZ002-NYZ038-NYZ072-251000-
SOUTHERN NEW ENGLAND AND NY
  
CITY           SKY/WX    TMP DP  RH WIND       PRES   REMARKS
BOSTON         MOCLDY    63  59  87 S5        29.89R                  
WORCESTER      FAIR      63  55  75 NE3       29.91R                  
NANTUCKET      FAIR      60  58  92 S9        29.93R                  
PROVIDENCE     FAIR      66  64  93 S5        29.89S                  
HARTFORD       CLOUDY    66  61  84 CALM      29.86R                  
ALBANY         CLOUDY    73  56  54 S8        29.80S                  
NEW YORK CITY  CLOUDY    73  68  84 SE8       29.81S                  
$$

ANZ081-ANZ082-ANZ150-NHZ014-MEZ023>029-251000-
COASTAL MARINE OBSERVATIONS
  
STATION/POSITION TIME  TEMP    WIND        PRES    WAVE
                       AIR SEA DIR/SP/G            HT/PER
                 (UTC) (F)     (DEG/KT/KT) (MB)    (FT/S)
ISLE OF SHOALS   0800   60     120/ 10/ 11 1011.8S
JEFFREYS LEDGE   0838      58                N/A     2/ 4
CASHES LEDGE BUO 0850   55 54  100/  4/  4 1014.3R   2/ 6
GEORGES BANK BUO 0850   55 53  130/  4/  6 1015.7R   2/ 7
$$

.............KEY..............
   WCI - WIND CHILL
   TC  - TEMPERATURE IN CELSIUS
   VSB - VISIBILITY IN MILES
   HX  - HEAT INDEX
   FAIR- INDICATES FEW OR NO CLOUDS BELOW 12,000 FT, WITH NO 
         SIGNIFICANT WEATHER AND/OR OBSTRUCTIONS TO VISIBILITY.